Portada
METAR-TAF:

METAR-TAF

Aeropuertos :

Olivia Regional Airport

Olivia, Minnesota, Estados Unidos

latitud: 44-46-43N, longitud: 095-01-58W, altitud: 328 m

Observación

El informe se hizo hace 27 minutos, a las 02:35 UTC
Viento 3 kt del este-noreste
Temperatura 7°C
Humedad 33%
Presión 1025 hPa
Visibilidad: 16.1 km
Cielo despejado

METAR: KOVL 110235Z AUTO 06003KT 10SM CLR 07/M08 A3028 RMK AO2

Hora: 22:02 (03:02 UTC)


TAF: falta

Observaciones y pronósticos meteorológicos de más de 4000 aeropuertos (mensajes METAR y TAF).

Los puntos amarillos y rojos representan las estaciones disponibles.

Ponga el ratón en el punto deseado para ver el nombre de la estación.

Haga clic para ver las observaciones y los pronósticos meteorológicos.

Para cambiar el mapa : haga clic en los botones verdes con una cruz de color negro para hacer un zoom, en el botón verde con un guión para alejar o en las flechas verdes para mapas adyacentes.


METAR-TAF: